Regional Weather Roundup
Issued by NWS Green Bay, WI

Home | Current Version | Previous Version | Text Only | Print | Product List | Glossary On
Versions: 1 2 3 4 5 6 7 8 9 10 11 12 13 14 15 16 17 18 19 20 21 22 23 24 25 26 27 28 29 30 31 32 33 34 35 36 37 38 39 40 41 42 43 44 45 46 47 48 49 50
000
ASUS43 KGRB 240311
RWRGRB

NORTH-CENTRAL AND NORTHEAST WISCONSIN REGIONAL WEATHER ROUNDUP
NATIONAL WEATHER SERVICE GREEN BAY WI
1000 PM CDT SAT JUL 23 2016

WIZ005-009-010>012-018-019-240400-
NORTH CENTRAL WISCONSIN

CITY           SKY/WX    TMP DP  RH WIND       PRES   REMARKS
IRONWOOD       CLOUDY    73  70  88 S6        29.83F
MANITOWISH WTR LGT RAIN  70  70 100 S7        29.89S
ARBOR VITAE    RAIN      72  70  94 S8        29.90S
EAGLE RIVER    DRIZZLE   71  68  91 CALM      29.90F
LAND O LAKES   CLOUDY    71  67  88 SE3       29.91S
RHINELANDER    HVY RAIN  71  69  93 SW5       29.92R FOG
PHILLIPS       CLOUDY    68  68  99 S6        29.89R
ANTIGO         CLOUDY    71  70  99 SE6       29.91F
TOMAHAWK       RAIN      67  66  94 SE3       29.90F
MERRILL        HVY RAIN  69  69 100 E5        29.90R
$$

WIZ013-073-240400-
NORTHEAST WISCONSIN

CITY           SKY/WX    TMP DP  RH WIND       PRES   REMARKS
IRON MOUNTAIN  CLOUDY    74  63  68 SE5       29.89F
MARINETTE      CLOUDY    76  65  68 S7        29.91R
OCONTO         CLOUDY    74  74 100 SE5       29.89S
$$

WIZ017-030-035>037-045-240400-
CENTRAL WISCONSIN

CITY           SKY/WX    TMP DP  RH WIND       PRES   REMARKS
MEDFORD        CLOUDY    67  67 100 SE3       29.88S
WAUSAU         LGT RAIN  70  67  90 E6        29.87S
MOSINEE        LGT RAIN  70  68  94 SE6       29.89S
MARSHFIELD     MOCLDY    70  66  87 CALM      29.86F
WISC RAPIDS    CLOUDY    71  67  87 S5        29.88S
STEVENS POINT  MOCLDY    69  69  97 SE7       29.88F
WAUPACA        CLOUDY    73  73  97 CALM      29.89F
SHAWANO        CLOUDY    76  72  88 CALM      29.89F
CLINTONVILLE   CLOUDY    73  70  88 SE3       29.89S
WAUTOMA        CLOUDY    71  70  96 SE9       29.88F
$$

WIZ038-039-048-051-240400-
FOX VALLEY

CITY           SKY/WX    TMP DP  RH WIND       PRES   REMARKS
NWS GREEN BAY  CLOUDY    75  75 100 S6        29.90R
APPLETON       MOCLDY    73  70  88 VRB6      29.90S
OSHKOSH        CLOUDY    73  70  90 S9        29.90S
FOND DU LAC    CLOUDY    74  71  91 S8        29.91F
$$

WIZ022-050-052-240400-
EAST CENTRAL WISCONSIN

CITY           SKY/WX    TMP DP  RH WIND       PRES   REMARKS
EPHRAIM        MOCLDY    71  63  74 SE6       29.90F
WASHINGTON ISL NOT AVBL
STURGEON BAY   CLOUDY    73  66  78 SE8       29.91S
MANITOWOC      CLOUDY    69  67  93 MISG      29.92S FOG
SHEBOYGAN      LGT RAIN  74  71  91 S10       29.92F
$$

LMZ563-521-522-541>543-240400-
LAKESHORE

STATION/POSITION TIME  TEMP    WIND        PRES    VSBY  WAVE
                       AIR SEA DIR/SP/G                  HT/PER
                 (UTC) (F)     (DEG/KT/KT) (MB)    (MI)  (FT/S)
SHEBOYGAN LKSHOR 0300   75     190/ 11/ 12 1013.0F
KEWAUNEE LKSHORE 0200   66                   N/A
NORTHPORT PIER   0200   74     150/  5/  7 1012.9R
N MID LAKE BUOY  0250   73 71  140/  8/  8 1012.4R         0
S GREEN BAY BUOY 0230   74 75  140/ 10/ 12   N/A
CHAMBERS ISLAND  0200   76     130/  4/  9 1012.2
MENOMINEE LKSHOR 0200   76                   N/A
$$



USA.gov is the U.S. government's official web portal to all federal, state and local government web resources and services.